Погода в Оранках

Россия / Нижегородская область     55°53′44″N   43°42′56″E
темп.,
°C
ветер,
м/с
пор.,
м/с
влажн.,
%
обл.,
%
осадки,
мм/ч
давл.,
гПа
погр.,
м
19 апреля, пн
пн1900:00+4всв5128676 0.0 1025494
03:00+3всв6127799 0.0 1026458
06:00+2всв61273100 0.0 1026511
09:00+4в71065100 0.0 1027674
12:00+7в81047100 0.0 10271217
15:00+8в81039100 0.0 10261548
18:00+6в7124348 0.0 10271386
21:00+3в614484 0.0 1027628
20 апреля, вт
вт2000:00+2в6145068 0.0 1028539
03:00+2в61353100 0.0 1027527
06:000в6146098 0.0 1027470
09:00+5вюв81452100 0.0 1027913
12:00+9вюв81342100 0.0 10261290
15:00+10вюв81240100 0.0 10241557
18:00+9вюв81346100 0.0 10221219
21:00+6вюв81547100 0.0 1021872
21 апреля, ср
ср2100:00+6вюв91846100 0.0 1018923
03:00+4вюв101961100 0.7 1015995
06:00+3юв101991100 8.1 1013979
09:00+4юв101987100 8.3 1011911
12:00+5юв101886100 0.0 10101049
15:00+6юв91887100 0.0 10091098
18:00+7ю71485100 0.3 10111335
21:00+6ююз71281100 0.4 10141090
22 апреля, чт
чт2200:00+5ююз51181100 0.0 1016717
03:00+5ю4878100 0.1 1018243
06:00+5ююв41086100 0.0 1018271
09:00+9ю587186 0.0 1018724
12:00+10ююз6765100 0.2 10191301
15:00+8ююз4781100 0.4 1020914
18:00+10ю367365 0.0 1020395
21:00+6ю359074 0.1 102280
23 апреля, пт
пт2300:00+7ю498598 0.0 1022221
03:00+7ю398534 0.0 1022232
06:00+6ююв388952 0.0 1022169
09:00+12ю596333 0.0 1022575
12:00+16ююз794658 0.1 10212199
15:00+16ю674693 0.1 10201985
18:00+13ююв5106280 0.1 1020453
21:00+11ююв4117180 0.1 1020295